Weather History for Big Bear City, CA

Change the Weather History Date:

Friday, November 23, 2012

  Actual Average (KBUO) Record (KBUO)
Temperature  
Mean Temperature 41 °F -  
Max Temperature 59 °F 65 °F 122 °F (1997)
Min Temperature 23 °F 44 °F 37 °F (2000)
Degree Days  
Heating Degree Days 24    
Moisture  
Dew Point 17 °F    
Average Humidity 49    
Maximum Humidity 74    
Minimum Humidity 19    
Precipitation  
Precipitation 0.00 in - - ()
Sea Level Pressure  
Sea Level Pressure 30.37 in    
Wind  
Wind Speed 2 mph (ENE)    
Max Wind Speed 13 mph    
Max Gust Speed 17 mph    
Visibility 10 miles    
Events      
Averages and records for this station are not official NWS values.
T = Trace of Precipitation, MM = Missing Value Source: NWS Daily Summary

Daily Weather History Graph

Daily Weather History Graph

Search for Another Location

Airport:

Trip Planner

Search our weather history database for the weather conditions in past years. The results will help you decide how hot, cold, wet, or windy it might be!

Date:

Astronomy

Nov. 23, 2012 Rise Set
Actual Time 6:28 AM PST 4:39 PM PST
Civil Twilight 6:01 AM PST 5:06 PM PST
Nautical Twilight 5:30 AM PST 5:37 PM PST
Astronomical Twilight 5:00 AM PST 6:07 PM PST
Moon 1:47 PM PST (11/23) 2:02 AM PST (11/23)
Length of Visible Light 11h 04m
Length of Day
10h 10m
Waxing Gibbous, 80% of the Moon is Illuminated
Nov 23
Waxing Gibbous
Nov 28
Full
Dec 6
Last Quarter
Dec 13
New
Dec 19
First Quarter

Hourly Weather History & Observations

Time (PST) Temp. Dew Point Humidity Pressure Visibility Wind Dir Wind Speed Gust Speed Precip Events Conditions
12:15 AM 28.4 °F 19.4 °F 69% 30.38 in 7.0 mi Calm Calm - N/A   Clear
12:35 AM 28.4 °F 19.4 °F 69% 30.37 in 10.0 mi Calm Calm - N/A   Clear
12:55 AM 28.4 °F 19.4 °F 69% 30.37 in 10.0 mi Calm Calm - N/A   Clear
1:15 AM 28.4 °F 19.4 °F 69% 30.37 in 10.0 mi Calm Calm - N/A   Clear
1:35 AM 26.6 °F 19.4 °F 74% 30.37 in 10.0 mi Calm Calm - N/A   Clear
1:55 AM 26.6 °F 19.4 °F 74% 30.37 in 10.0 mi Calm Calm - N/A   Clear
2:15 AM 26.6 °F 17.6 °F 69% 30.37 in 10.0 mi Calm Calm - N/A   Clear
2:35 AM 26.6 °F 17.6 °F 69% 30.36 in 10.0 mi Calm Calm - N/A   Clear
2:55 AM 26.6 °F 17.6 °F 69% 30.36 in 10.0 mi Calm Calm - N/A   Clear
3:15 AM 26.6 °F 17.6 °F 69% 30.36 in 10.0 mi Calm Calm - N/A   Clear
3:35 AM 26.6 °F 17.6 °F 69% 30.35 in 10.0 mi Calm Calm - N/A   Clear
4:15 AM 26.6 °F 17.6 °F 69% 30.35 in 10.0 mi Calm Calm - N/A   Clear
4:35 AM 24.8 °F 17.6 °F 74% 30.35 in 7.0 mi Calm Calm - N/A   Clear
4:55 AM 24.8 °F 17.6 °F 74% 30.36 in 7.0 mi Calm Calm - N/A   Clear
5:15 AM 24.8 °F 17.6 °F 74% 30.36 in 10.0 mi Calm Calm - N/A   Clear
5:35 AM 24.8 °F 17.6 °F 74% 30.36 in 10.0 mi Calm Calm - N/A   Clear
5:55 AM 23.0 °F 15.8 °F 74% 30.37 in 10.0 mi Calm Calm - N/A   Clear
6:15 AM 24.8 °F 15.8 °F 69% 30.38 in 10.0 mi Calm Calm - N/A   Clear
6:35 AM 24.8 °F 17.6 °F 74% 30.39 in 7.0 mi Calm Calm - N/A   Clear
6:55 AM 23.0 °F 15.8 °F 74% 30.39 in 7.0 mi Calm Calm - N/A   Clear
7:15 AM 26.6 °F 17.6 °F 69% 30.39 in 10.0 mi Calm Calm - N/A   Clear
7:35 AM 28.4 °F 17.6 °F 64% 30.39 in 10.0 mi Calm Calm - N/A   Clear
7:55 AM 30.2 °F 19.4 °F 64% 30.39 in 10.0 mi Calm Calm - N/A   Clear
8:15 AM 32.0 °F 19.4 °F 60% 30.40 in 10.0 mi Calm Calm - N/A   Clear
8:35 AM 35.6 °F 21.2 °F 56% 30.39 in 10.0 mi Calm Calm - N/A   Clear
8:55 AM 41.0 °F 21.2 °F 45% 30.40 in 10.0 mi Calm Calm - N/A   Clear
9:15 AM 48.2 °F 21.2 °F 34% 30.40 in 10.0 mi Calm Calm - N/A   Clear
9:35 AM 53.6 °F 19.4 °F 26% 30.40 in 10.0 mi East 5.8 mph - N/A   Clear
10:15 AM 55.4 °F 17.6 °F 23% 30.39 in 10.0 mi NE 10.4 mph - N/A   Clear
10:35 AM 57.2 °F 17.6 °F 21% 30.39 in 10.0 mi ENE 12.7 mph 17.3 mph N/A   Clear
10:55 AM 57.2 °F 17.6 °F 21% 30.39 in 10.0 mi ENE 10.4 mph 16.1 mph N/A   Clear
11:15 AM 59.0 °F 15.8 °F 19% 30.38 in 10.0 mi East 11.5 mph 16.1 mph N/A   Clear
11:35 AM 59.0 °F 15.8 °F 19% 30.37 in 10.0 mi ENE 9.2 mph - N/A   Clear
11:55 AM 59.0 °F 15.8 °F 19% 30.36 in 10.0 mi ENE 12.7 mph - N/A   Clear
12:15 PM 59.0 °F 15.8 °F 19% 30.36 in 10.0 mi ENE 9.2 mph 16.1 mph N/A   Clear
12:35 PM 59.0 °F 17.6 °F 20% 30.35 in 10.0 mi ENE 10.4 mph - N/A   Clear
12:55 PM 59.0 °F 15.8 °F 19% 30.34 in 10.0 mi ENE 8.1 mph - N/A   Clear
1:15 PM 59.0 °F 17.6 °F 20% 30.34 in 10.0 mi East 10.4 mph - N/A   Clear
1:35 PM 59.0 °F 15.8 °F 19% 30.34 in 10.0 mi ENE 10.4 mph - N/A   Clear
1:55 PM 59.0 °F 15.8 °F 19% 30.34 in 10.0 mi ENE 9.2 mph - N/A   Clear
2:15 PM 59.0 °F 15.8 °F 19% 30.34 in 10.0 mi ENE 6.9 mph - N/A   Clear
2:35 PM 57.2 °F 17.6 °F 21% 30.34 in 10.0 mi NE 6.9 mph - N/A   Clear
2:55 PM 57.2 °F 17.6 °F 21% 30.34 in 10.0 mi ENE 6.9 mph - N/A   Clear
3:15 PM 55.4 °F 17.6 °F 23% 30.34 in 10.0 mi ENE 5.8 mph - N/A   Clear
3:35 PM 55.4 °F 17.6 °F 23% 30.34 in 10.0 mi ENE 6.9 mph - N/A   Clear
4:15 PM 53.6 °F 17.6 °F 24% 30.34 in 10.0 mi Calm Calm - N/A   Clear
4:35 PM 48.2 °F 19.4 °F 32% 30.34 in 10.0 mi Calm Calm - N/A   Clear
4:55 PM 46.4 °F 19.4 °F 34% 30.34 in 10.0 mi Calm Calm - N/A   Clear
5:15 PM 42.8 °F 17.6 °F 36% 30.34 in 10.0 mi Calm Calm - N/A   Clear
5:35 PM 41.0 °F 17.6 °F 39% 30.34 in 10.0 mi Calm Calm - N/A   Clear
5:55 PM 39.2 °F 17.6 °F 42% 30.35 in 7.0 mi Calm Calm - N/A   Clear
6:15 PM 35.6 °F 17.6 °F 48% 30.35 in 10.0 mi Calm Calm - N/A   Clear
6:35 PM 35.6 °F 17.6 °F 48% 30.35 in 10.0 mi Calm Calm - N/A   Clear
6:55 PM 33.8 °F 17.6 °F 52% 30.36 in 10.0 mi Calm Calm - N/A   Clear
7:15 PM 32.0 °F 17.6 °F 55% 30.36 in 10.0 mi Calm Calm - N/A   Clear
7:35 PM 32.0 °F 17.6 °F 55% 30.36 in 10.0 mi Calm Calm - N/A   Clear
7:55 PM 32.0 °F 17.6 °F 55% 30.37 in 10.0 mi Calm Calm - N/A   Clear
8:15 PM 32.0 °F 17.6 °F 55% 30.37 in 10.0 mi Calm Calm - N/A   Clear
8:35 PM 30.2 °F 17.6 °F 60% 30.37 in 10.0 mi Calm Calm - N/A   Clear
8:55 PM 30.2 °F 17.6 °F 60% 30.38 in 10.0 mi Calm Calm - N/A   Clear
9:15 PM 30.2 °F 15.8 °F 55% 30.38 in 10.0 mi Calm Calm - N/A   Clear
9:35 PM 30.2 °F 15.8 °F 55% 30.38 in 10.0 mi Calm Calm - N/A   Clear
9:55 PM 28.4 °F 15.8 °F 59% 30.37 in 10.0 mi Calm Calm - N/A   Clear
10:15 PM 28.4 °F 14.0 °F 55% 30.37 in 10.0 mi Calm Calm - N/A   Clear
10:35 PM 28.4 °F 12.2 °F 51% 30.38 in 10.0 mi Calm Calm - N/A   Clear
10:55 PM 28.4 °F 12.2 °F 51% 30.38 in 10.0 mi Calm Calm - N/A   Clear
11:15 PM 28.4 °F 12.2 °F 51% 30.37 in 7.0 mi Calm Calm - N/A   Clear
11:35 PM 26.6 °F 12.2 °F 55% 30.37 in 10.0 mi Calm Calm - N/A   Clear
11:55 PM 26.6 °F 14.0 °F 59% 30.37 in 10.0 mi Calm Calm - N/A   Clear